Location: Big Meadows
(38.5260°N, 78.4400°W)
Time: 21:19:59
(UTC-04:00)

Amateur Radio Satellites - All Passes

Search period start: 29 June 2016 20:49
Search period end: 30 June 2016 20:49
Location: Big Meadows, 38.5260°N, 78.4400°W

Satellite Date Start Highest point End Downlink Frequencies (MHz)
Time Altitude Azimuth
CUBEBUG 2 29 Jun 21:02:05 21:06:10 60° 75° (ENE) 21:10:22 437.445
AAUSAT CUBESAT 2 29 Jun 21:07:19 21:11:31 86° 75° (ENE) 21:15:44 437.432
DELFI C3 29 Jun 21:10:43 21:13:03 15° 67° (ENE) 21:15:22 145.870
STRAND 1 29 Jun 21:13:59 21:18:49 42° 290° (WNW) 21:23:37 437.568
CINEMA 3 29 Jun 21:14:13 21:17:43 26° 264° (W) 21:21:14 145.822/145.860
Cosmos 2499 29 Jun 21:18:19 21:24:37 23° 294° (WNW) 21:31:12 435.465 / 435.565
M-CUBED/EXP-1 PRIME 29 Jun 21:22:53 21:26:07 69° 253° (WSW) 21:29:23 437.505
ZACube-1 29 Jun 21:22:59 21:26:58 44° 73° (ENE) 21:31:05 437.345
HO-68 29 Jun 21:24:19 21:30:50 38° 262° (W) 21:37:26 435.675
Oscar 11 29 Jun 21:30:10 21:34:26 60° 75° (ENE) 21:38:44 145.826/435.025
FUNcube-1 29 Jun 21:39:39 21:43:49 66° 75° (ENE) 21:48:05 145.935
COMPASS 1 29 Jun 21:43:24 21:47:02 28° 264° (W) 21:50:42 437.405
UWE-3 29 Jun 21:46:48 21:50:54 60° 260° (W) 21:55:09 435.000/436.395/437.385
CANX-2 29 Jun 21:49:06 21:50:35 12° 269° (W) 21:52:05 2200.000
AO-85 29 Jun 21:50:42 21:56:10 87° 304° (WNW) 22:01:28 145.980
PRISM 29 Jun 21:53:46 21:57:52 88° 286° (WNW) 22:01:56 437.425
SEEDS 29 Jun 22:11:15 22:11:59 10° 270° (W) 22:12:42 437.485
AUBIESAT-1 29 Jun 22:18:13 22:20:14 15° 261° (W) 22:22:16 437.475
RS-15 29 Jun 22:22:08 22:34:06 60° 248° (WSW) 22:45:54 29.354- 29.394
HUMSAT D 29 Jun 22:24:45 22:28:46 50° 74° (ENE) 22:32:53 437.325/437.525
YUBILEINY 29 Jun 22:34:52 22:39:27 15° 61° (ENE) 22:44:01 435.215
ESTCUBE 1 29 Jun 22:38:37 22:40:55 14° 64° (ENE) 22:43:12 437.505/2401.250
DELFI C3 29 Jun 22:43:46 22:47:33 39° 262° (W) 22:51:22 145.870
TIGRISAT 29 Jun 23:00:34 23:04:45 31° 97° (E) 23:08:55 435.000
ZACube-1 29 Jun 23:01:22 23:03:31 14° 269° (W) 23:05:42 437.345
50 SAT 29 Jun 23:04:36 23:06:31 14° 67° (ENE) 23:08:26 437.505
UNISAT 6 29 Jun 23:06:01 23:10:23 38° 98° (E) 23:14:46 437.425
Oscar 11 29 Jun 23:09:56 23:10:55 11° 270° (W) 23:11:54 145.826/435.025
CUBEBUG 1 29 Jun 23:19:32 23:23:03 24° 69° (ENE) 23:26:32 437.445
VELOX 1 29 Jun 23:30:50 23:34:40 30° 70° (ENE) 23:38:30 145.980
AO-85 29 Jun 23:34:13 23:37:20 15° 318° (NW) 23:40:24 145.980
Cosmos 2491 29 Jun 23:43:44 23:49:47 21° 80° (E) 23:55:48 435.465 / 435.565
ANTELSAT 29 Jun 23:45:34 23:50:15 80° 282° (WNW) 23:54:57 437.575/2403.000
HUMSAT D 30 Jun 00:03:01 00:04:41 12° 269° (W) 00:06:22 437.325/437.525
SPROUT 30 Jun 00:03:23 00:07:00 28° 70° (ENE) 00:10:38 437.525
UKube-1 30 Jun 00:04:02 00:08:06 43° 72° (ENE) 00:12:11 .
AISAT 30 Jun 00:11:10 00:15:35 90° 222° (SW) 00:20:00 437.250
ESTCUBE 1 30 Jun 00:12:46 00:17:13 56° 260° (W) 00:21:42 437.505/2401.250
BUGSAT 1 30 Jun 00:13:47 00:15:19 12° 92° (E) 00:16:52 437.445
DX 1 30 Jun 00:26:17 00:30:38 82° 258° (WSW) 00:34:59 434.975-435.025
YUBILEINY 30 Jun 00:28:53 00:37:47 78° 82° (E) 00:46:37 435.215
50 SAT 30 Jun 00:36:24 00:39:50 36° 262° (W) 00:43:19 437.505
NANOSAT C BR1 30 Jun 00:37:02 00:41:15 58° 101° (E) 00:45:25 145.865
TIGRISAT 30 Jun 00:37:29 00:41:15 25° 292° (WNW) 00:45:02 435.000
QB50P1 30 Jun 00:40:50 00:45:05 69° 101° (ESE) 00:49:20 145.935-145.965
UNISAT 6 30 Jun 00:43:23 00:46:49 21° 293° (WNW) 00:50:16 437.425
POPSAT HIP 1 30 Jun 00:44:11 00:48:27 74° 103° (ESE) 00:52:43 437.405
Cosmos 2504 30 Jun 00:44:34 00:52:23 33° 71° (ENE) 00:59:51 435.465 / 435.565
SO-50 30 Jun 00:53:18 00:57:55 62° 56° (ENE) 01:02:23 436.795
CUBEBUG 1 30 Jun 00:55:29 00:59:12 27° 264° (W) 01:02:55 437.445
DUCHIFAT 1 30 Jun 00:56:53 01:01:09 86° 283° (WNW) 01:05:23 145.980
QB50P2 30 Jun 00:56:54 01:01:09 72° 285° (WNW) 01:05:25 145.880/145.840
POLYITAN 1 30 Jun 00:59:31 01:03:47 70° 285° (WNW) 01:08:03 437.675
PCSat 30 Jun 01:00:01 01:02:39 14° 103° (ESE) 01:05:17 145.827
JAS-2 30 Jun 01:04:51 01:09:19 25° 94° (E) 01:13:34 435.910
VELOX 1 30 Jun 01:07:38 01:11:07 22° 265° (W) 01:14:36 145.980
TISAT 1 30 Jun 01:17:58 01:21:57 48° 74° (ENE) 01:25:59 437.305
BEESAT 30 Jun 01:18:32 01:18:52 10° 60° (ENE) 01:19:13 436.000
Oscar 19 30 Jun 01:18:40 01:19:21 10° 89° (E) 01:20:03 437.125/150
ITUPSAT 1 30 Jun 01:20:00 01:20:52 10° 61° (ENE) 01:21:45 437.325
Cosmos 2491 30 Jun 01:36:51 01:45:37 75° 278° (W) 01:54:23 435.465 / 435.565
SPROUT 30 Jun 01:39:35 01:42:55 22° 265° (W) 01:46:16 437.525
UKube-1 30 Jun 01:41:52 01:44:20 15° 267° (W) 01:46:49 .
BUGSAT 1 30 Jun 01:46:58 01:50:56 49° 287° (WNW) 01:54:57 437.445
BEESAT 3 30 Jun 01:56:49 01:59:59 24° 112° (ESE) 02:03:11 437.485
NANOSAT C BR1 30 Jun 02:14:54 02:16:27 12° 296° (WNW) 02:18:01 145.865
QB50P1 30 Jun 02:19:47 02:20:16 10° 297° (WNW) 02:20:45 145.935-145.965
SWISSCUBE 30 Jun 02:26:07 02:30:48 57° 73° (ENE) 02:35:32 437.505
YUBILEINY 30 Jun 02:27:36 02:33:29 20° 281° (W) 02:39:23 435.215
SO-50 30 Jun 02:35:46 02:37:47 13° 253° (WSW) 02:39:47 436.795
BEESAT 2 30 Jun 02:37:07 02:40:46 36° 115° (ESE) 02:44:26 435.950
Cosmos 2504 30 Jun 02:37:34 02:46:03 53° 271° (W) 02:54:09 435.465 / 435.565
PCSat 30 Jun 02:39:57 02:45:22 73° 299° (WNW) 02:50:49 145.827
O/OREOS (USA 219) 30 Jun 02:47:41 02:52:07 61° 107° (ESE) 02:56:32 437.305
JAS-2 30 Jun 02:49:32 02:54:32 35° 292° (WNW) 02:59:14 435.910
BEESAT 30 Jun 02:51:07 02:55:54 87° 254° (WSW) 03:00:43 436.000
ITUPSAT 1 30 Jun 02:53:10 02:57:58 85° 257° (WSW) 03:02:49 437.325
Oscar 19 30 Jun 02:54:05 02:59:14 81° 284° (WNW) 03:04:21 437.125/150
TISAT 1 30 Jun 02:56:10 02:57:52 12° 268° (W) 02:59:35 437.305
KKS-1 30 Jun 03:16:55 03:20:05 20° 67° (ENE) 03:23:16 437.445
MOZHAYETS 4 30 Jun 03:18:18 03:21:31 19° 66° (ENE) 03:24:45
ITAMSAT 1 30 Jun 03:20:31 03:24:50 26° 95° (E) 03:29:09 435.822/435.867
Gurwin Techsat 1B 30 Jun 03:23:07 03:28:28 81° 102° (ESE) 03:33:48 435.225
BEESAT 3 30 Jun 03:34:13 03:37:33 27° 308° (NW) 03:40:57 437.485
Cosmos 2491 30 Jun 03:40:04 03:44:04 14° 299° (WNW) 03:48:05 435.465 / 435.565
AO-7 30 Jun 03:40:48 03:46:49 21° 93° (E) 03:52:46 29.400- 29.500
STARS 30 Jun 03:44:52 03:47:58 19° 67° (ENE) 03:51:06 437.465
AIST 1 30 Jun 03:57:32 04:01:05 25° 76° (ENE) 04:04:36
SWISSCUBE 30 Jun 04:06:32 04:08:56 14° 268° (W) 04:11:20 437.505
BEESAT 2 30 Jun 04:15:48 04:18:43 19° 312° (NW) 04:21:39 435.950
PCSat 30 Jun 04:27:35 04:29:44 12° 319° (NW) 04:31:52 145.827
O/OREOS (USA 219) 30 Jun 04:29:45 04:31:55 13° 305° (NW) 04:34:06 437.305
GONETS M04 30 Jun 04:31:49 04:37:50 20° 65° (ENE) 04:43:49
CUBESAT XI-V 30 Jun 04:49:55 04:53:22 21° 67° (ENE) 04:56:49 437.345
KKS-1 30 Jun 04:52:20 04:56:23 35° 262° (W) 05:00:28 437.445
MOZHAYETS 4 30 Jun 04:54:00 04:58:21 41° 262° (W) 05:02:45
ITAMSAT 1 30 Jun 04:59:36 05:04:21 36° 291° (WNW) 05:09:04 435.822/435.867
Gurwin Techsat 1B 30 Jun 05:05:25 05:07:42 13° 300° (WNW) 05:09:57 435.225
AIST 2 30 Jun 05:09:43 05:13:50 90° 302° (WNW) 05:17:59 435.215
Cosmos 2499 30 Jun 05:16:36 05:23:36 26° 68° (ENE) 05:30:15 435.465 / 435.565
STARS 30 Jun 05:20:06 05:24:05 35° 262° (W) 05:28:05 437.465
AO-7 30 Jun 05:31:54 05:40:17 77° 290° (WNW) 05:48:36 29.400- 29.500
PHONESAT 2.4 30 Jun 05:32:12 05:34:00 15° 147° (SSE) 05:35:47 2401.200-2431.200
AIST 1 30 Jun 05:35:12 05:38:32 23° 271° (W) 05:41:52
HORYU 2 30 Jun 06:09:31 06:14:03 81° 101° (ESE) 06:18:33 437.375
CUTE-I 30 Jun 06:14:19 06:16:28 12° 90° (E) 06:18:37 437.470
AO-85 30 Jun 06:24:46 06:29:10 51° 55° (NE) 06:33:10 145.980
CUBESAT XI-V 30 Jun 06:26:06 06:30:29 38° 263° (W) 06:34:52 437.345
GONETS M04 30 Jun 06:26:55 06:35:40 82° 266° (W) 06:44:26
LilacSat-2 30 Jun 06:30:32 06:32:32 14° 92° (E) 06:34:31 437.200
NOAA 15 30 Jun 06:35:07 06:39:36 28° 96° (E) 06:44:04 137.62
STRAND 1 30 Jun 06:49:59 06:54:17 28° 67° (ENE) 06:58:36 437.568
AIST 2 30 Jun 06:51:57 06:52:56 11° 318° (NW) 06:53:55 435.215
PHONESAT 2.4 30 Jun 07:07:12 07:10:14 68° 162° (SSE) 07:13:18 2401.200-2431.200
Cosmos 2499 30 Jun 07:08:48 07:17:25 66° 268° (W) 07:25:28 435.465 / 435.565
BRITE-PL 30 Jun 07:10:10 07:14:17 63° 101° (E) 07:18:29 437.365/2234.400
CUSAT 1 30 Jun 07:11:22 07:18:34 43° 93° (E) 07:24:43 437.405
Cubesat XI-IV 30 Jun 07:17:54 07:23:10 53° 100° (E) 07:28:25 437.490
NOAA 18 30 Jun 07:26:09 07:31:41 67° 103° (ESE) 07:37:12 137.9125
AO-7 30 Jun 07:26:52 07:31:40 17° 310° (NW) 07:36:30 29.400- 29.500
GOMX 1 30 Jun 07:34:50 07:38:58 51° 100° (E) 07:43:19 467.674
DANDE 30 Jun 07:48:55 07:56:44 45° 91° (E) 08:04:00 436.750
CUTE-I 30 Jun 07:51:40 07:57:03 75° 286° (WNW) 08:02:23 437.470
CANX-2 30 Jun 07:59:34 08:00:22 10° 90° (E) 08:01:09 2200.000
LilacSat-2 30 Jun 08:03:22 08:06:59 38° 287° (WNW) 08:10:35 437.200
AO-85 30 Jun 08:06:56 08:09:01 13° 253° (WSW) 08:11:00 145.980
NOAA 15 30 Jun 08:14:42 08:19:21 33° 292° (WNW) 08:24:00 137.62
CUTE 1.7 + AOD 2 30 Jun 08:17:36 08:20:10 15° 92° (E) 08:22:43 437.475
SEEDS 30 Jun 08:19:39 08:20:45 11° 90° (E) 08:21:50 437.485
ISS 30 Jun 08:24:42 08:27:56 68° 138° (SE) 08:31:11 145.825
DOVE 4 30 Jun 08:26:04 08:30:28 87° 103° (ESE) 08:35:08 437.250
GONETS M04 30 Jun 08:27:00 08:31:01 14° 284° (WNW) 08:35:02
STRAND 1 30 Jun 08:28:42 08:33:18 33° 263° (W) 08:37:58 437.568
PRISM 30 Jun 08:41:27 08:45:29 53° 74° (ENE) 08:49:32 437.425
PHONESAT 2.4 30 Jun 08:43:53 08:46:55 56° 358° (N) 08:49:57 2401.200-2431.200
AAUSAT CUBESAT 2 30 Jun 08:52:30 08:54:51 15° 92° (E) 08:57:11 437.432
HO-68 30 Jun 08:52:48 08:59:42 47° 100° (E) 09:06:33 435.675
CUSAT 1 30 Jun 08:53:44 09:00:37 35° 285° (WNW) 09:06:31 437.405
CUBEBUG 2 30 Jun 08:55:09 08:57:58 16° 92° (E) 09:00:47 437.445
Cubesat XI-IV 30 Jun 08:59:02 09:02:49 20° 296° (WNW) 09:06:34 437.490
NOAA 18 30 Jun 09:08:22 09:11:45 17° 299° (WNW) 09:15:08 137.9125
CINEMA 3 30 Jun 09:08:35 09:13:11 73° 101° (E) 09:18:00 145.822/145.860
GOMX 1 30 Jun 09:14:44 09:16:43 13° 294° (WNW) 09:18:42 467.674
ZACube-1 30 Jun 09:15:14 09:16:11 11° 90° (E) 09:17:08 437.345
Oscar 11 30 Jun 09:20:46 09:22:35 12° 91° (E) 09:24:24 145.826/435.025
COMPASS 1 30 Jun 09:27:02 09:31:06 48° 99° (E) 09:35:07 437.405
FUNcube-1 30 Jun 09:30:12 09:32:54 15° 92° (E) 09:35:36 145.935
DANDE 30 Jun 09:31:46 09:39:33 41° 286° (WNW) 09:46:45 436.750
CANX-2 30 Jun 09:32:21 09:36:34 59° 286° (WNW) 09:40:46 2200.000
UWE-3 30 Jun 09:37:40 09:41:46 31° 96° (E) 09:45:52 435.000/436.395/437.385
PCSat 30 Jun 09:48:36 09:50:12 11° 40° (NE) 09:51:48 145.827
CUTE 1.7 + AOD 2 30 Jun 09:52:10 09:56:11 40° 287° (WNW) 10:00:10 437.475
SEEDS 30 Jun 09:52:37 09:56:47 56° 285° (WNW) 10:00:53 437.485
AUBIESAT-1 30 Jun 09:55:50 09:59:20 27° 103° (ESE) 10:03:00 437.475
TIGRISAT 30 Jun 09:58:27 10:01:47 22° 68° (ENE) 10:05:11 435.000
ISS 30 Jun 10:02:20 10:04:40 18° 336° (NNW) 10:07:01 145.825
UNISAT 6 30 Jun 10:03:53 10:07:30 27° 69° (ENE) 10:11:13 437.425
BEESAT 3 30 Jun 10:16:17 10:17:46 12° 43° (NE) 10:19:14 437.485
PRISM 30 Jun 10:19:46 10:21:05 11° 268° (W) 10:22:23 437.425
PHONESAT 2.4 30 Jun 10:20:35 10:23:39 88° 30° (NNE) 10:26:44 2401.200-2431.200
DELFI C3 30 Jun 10:22:58 10:26:23 27° 96° (E) 10:29:44 145.870
AAUSAT CUBESAT 2 30 Jun 10:26:36 10:30:31 40° 287° (WNW) 10:34:23 437.432
CUBEBUG 2 30 Jun 10:30:18 10:34:47 49° 286° (WNW) 10:39:19 437.445
RS-15 30 Jun 10:33:32 10:42:21 27° 101° (ESE) 10:51:29 29.354- 29.394
M-CUBED/EXP-1 PRIME 30 Jun 10:36:22 10:40:21 79° 289° (WNW) 10:44:39 437.505
HO-68 30 Jun 10:40:55 10:47:09 33° 297° (WNW) 10:53:22 435.675
ANTELSAT 30 Jun 10:42:49 10:47:06 75° 76° (ENE) 10:51:31 437.575/2403.000
CINEMA 3 30 Jun 10:48:17 10:49:47 11° 296° (WNW) 10:51:17 145.822/145.860
ZACube-1 30 Jun 10:48:19 10:52:52 68° 285° (WNW) 10:57:25 437.345
Oscar 11 30 Jun 10:54:46 10:59:01 52° 286° (WNW) 11:03:13 145.826/435.025
BEESAT 2 30 Jun 10:57:00 10:59:38 17° 47° (NE) 11:02:15 435.950
COMPASS 1 30 Jun 11:04:11 11:06:13 13° 295° (WNW) 11:08:14 437.405
FUNcube-1 30 Jun 11:04:58 11:09:21 47° 287° (WNW) 11:13:44 145.935
UWE-3 30 Jun 11:14:19 11:18:04 25° 291° (WNW) 11:21:50 435.000/436.395/437.385
JAS-2 30 Jun 11:16:47 11:20:26 15° 59° (ENE) 11:23:57 435.910
NANOSAT C BR1 30 Jun 11:27:49 11:31:37 34° 71° (ENE) 11:35:25 145.865
PCSat 30 Jun 11:29:16 11:34:40 66° 60° (ENE) 11:40:02 145.827
AUBIESAT-1 30 Jun 11:30:26 11:33:40 24° 294° (WNW) 11:37:04 437.475
QB50P1 30 Jun 11:31:48 11:35:43 41° 72° (ENE) 11:39:41 145.935-145.965
TIGRISAT 30 Jun 11:34:32 11:38:18 29° 264° (W) 11:42:09 435.000
POPSAT HIP 1 30 Jun 11:35:10 11:39:08 44° 73° (ENE) 11:43:07 437.405
YUBILEINY 30 Jun 11:35:39 11:40:41 17° 78° (ENE) 11:45:44 435.215
UNISAT 6 30 Jun 11:40:40 11:44:10 24° 265° (W) 11:47:45 437.425
HUMSAT D 30 Jun 11:44:50 11:49:08 69° 285° (WNW) 11:53:24 437.325/437.525
DUCHIFAT 1 30 Jun 11:47:07 11:51:11 55° 74° (ENE) 11:55:16 145.980
QB50P2 30 Jun 11:47:46 11:51:56 68° 75° (ENE) 11:56:07 145.880/145.840
Cosmos 2491 30 Jun 11:49:07 11:57:36 52° 77° (ENE) 12:06:01 435.465 / 435.565
POLYITAN 1 30 Jun 11:50:24 11:54:33 70° 76° (ENE) 11:58:45 437.675
BEESAT 3 30 Jun 11:51:58 11:55:55 74° 241° (WSW) 11:59:50 437.485
PHONESAT 2.4 30 Jun 11:57:34 12:00:02 22° 210° (SSW) 12:02:29 2401.200-2431.200
DELFI C3 30 Jun 11:58:05 12:01:04 20° 291° (WNW) 12:04:01 145.870
AISAT 30 Jun 12:03:40 12:06:46 19° 94° (E) 12:09:52 437.250
ESTCUBE 1 30 Jun 12:06:53 12:10:56 32° 97° (E) 12:14:57 437.505/2401.250
50 SAT 30 Jun 12:07:18 12:09:58 19° 95° (E) 12:12:36 437.505
DX 1 30 Jun 12:16:47 12:19:50 19° 94° (E) 12:22:53 434.975-435.025
Oscar 19 30 Jun 12:32:58 12:35:49 15° 62° (ENE) 12:38:41 437.125/150
BEESAT 2 30 Jun 12:33:52 12:37:41 45° 244° (WSW) 12:41:29 435.950
BUGSAT 1 30 Jun 12:34:55 12:38:56 89° 54° (NE) 12:42:58 437.445
RS-15 30 Jun 12:42:03 12:53:26 78° 303° (WNW) 13:05:33 29.354- 29.394
CUBEBUG 1 30 Jun 12:44:37 12:48:53 58° 101° (E) 12:53:08 437.445
JAS-2 30 Jun 12:56:56 13:04:35 79° 74° (ENE) 13:11:32 435.910
VELOX 1 30 Jun 12:57:54 13:02:18 74° 102° (ESE) 13:06:41 145.980
O/OREOS (USA 219) 30 Jun 12:58:58 13:03:29 88° 244° (WSW) 13:07:59 437.305
NANOSAT C BR1 30 Jun 13:04:39 13:07:26 17° 266° (W) 13:10:14 145.865
Gurwin Techsat 1B 30 Jun 13:06:09 13:08:47 14° 61° (ENE) 13:11:26 435.225
QB50P1 30 Jun 13:09:17 13:11:41 15° 268° (W) 13:14:04 145.935-145.965
POPSAT HIP 1 30 Jun 13:12:59 13:15:07 14° 268° (W) 13:17:17 437.405
PCSat 30 Jun 13:14:23 13:17:27 15° 256° (WSW) 13:20:30 145.827
ISS 30 Jun 13:18:25 13:19:52 12° 17° (NNE) 13:21:18 145.825
Cosmos 2504 30 Jun 13:21:32 13:28:02 27° 82° (E) 13:34:50 435.465 / 435.565
SPROUT 30 Jun 13:25:43 13:29:59 67° 101° (E) 13:34:15 437.525
DUCHIFAT 1 30 Jun 13:26:11 13:27:12 11° 269° (W) 13:28:12 145.980
YUBILEINY 30 Jun 13:27:29 13:36:12 88° 276° (W) 13:45:02 435.215
UKube-1 30 Jun 13:28:06 13:32:25 83° 283° (WNW) 13:36:43 .
AIST 2 30 Jun 13:32:30 13:36:22 37° 54° (NE) 13:40:14 435.215
AISAT 30 Jun 13:39:20 13:43:20 36° 289° (WNW) 13:47:20 437.250
50 SAT 30 Jun 13:40:35 13:43:36 24° 290° (WNW) 13:46:35 437.505
ESTCUBE 1 30 Jun 13:44:05 13:47:31 22° 293° (WNW) 13:50:57 437.505/2401.250
Cosmos 2491 30 Jun 13:46:38 13:53:58 32° 276° (W) 14:01:18 435.465 / 435.565
DX 1 30 Jun 13:52:10 13:56:07 35° 289° (WNW) 14:00:02 434.975-435.025
Oscar 19 30 Jun 14:09:28 14:14:34 65° 258° (WSW) 14:19:42 437.125/150
CUBEBUG 1 30 Jun 14:22:54 14:24:40 12° 296° (WNW) 14:26:25 437.445
SWISSCUBE 30 Jun 14:28:59 14:31:59 16° 93° (E) 14:34:57 437.505
ITAMSAT 1 30 Jun 14:36:56 14:41:37 35° 69° (ENE) 14:46:20 435.822/435.867
VELOX 1 30 Jun 14:37:45 14:38:08 10° 298° (WNW) 14:38:30 145.980
AO-7 30 Jun 14:38:22 14:45:07 29° 57° (ENE) 14:51:53 29.400- 29.500
TISAT 1 30 Jun 14:38:29 14:42:41 74° 285° (WNW) 14:46:54 437.305
Gurwin Techsat 1B 30 Jun 14:42:46 14:48:04 75° 257° (WSW) 14:53:24 435.225
JAS-2 30 Jun 14:45:00 14:49:59 19° 268° (W) 14:54:46 435.910
BEESAT 30 Jun 14:53:11 14:57:13 26° 96° (E) 15:01:13 436.000
ISS 30 Jun 14:53:44 14:56:56 49° 35° (NE) 15:00:06 145.825
ITUPSAT 1 30 Jun 14:55:35 14:59:41 27° 96° (E) 15:03:45 437.325
RS-15 30 Jun 14:58:45 15:08:17 28° 330° (NNW) 15:18:12 29.354- 29.394
SPROUT 30 Jun 15:04:24 15:05:21 11° 297° (WNW) 15:06:18 437.525
SO-50 30 Jun 15:06:09 15:10:21 29° 113° (ESE) 15:14:34 436.795
AIST 2 30 Jun 15:11:39 15:14:35 19° 249° (WSW) 15:17:31 435.215
Cosmos 2504 30 Jun 15:12:41 15:20:41 60° 281° (W) 15:29:18 435.465 / 435.565
YUBILEINY 30 Jun 15:29:04 15:34:18 17° 297° (WNW) 15:39:36 435.215
SWISSCUBE 30 Jun 16:05:24 16:10:01 48° 288° (WNW) 16:14:35 437.505
ITAMSAT 1 30 Jun 16:16:45 16:21:05 27° 264° (W) 16:25:29 435.822/435.867
AIST 1 30 Jun 16:26:17 16:28:59 16° 87° (E) 16:31:40
AO-7 30 Jun 16:29:00 16:37:15 65° 256° (WSW) 16:45:34 29.400- 29.500
JUGNU 30 Jun 16:30:01 16:32:15 12° 179° (S) 16:34:30 437.505
BEESAT 30 Jun 16:30:47 16:34:57 30° 291° (WNW) 16:39:05 436.000
ISS 30 Jun 16:31:06 16:33:04 15° 231° (SW) 16:35:03 145.825
ITUPSAT 1 30 Jun 16:33:19 16:37:27 29° 292° (WNW) 16:41:33 437.325
KKS-1 30 Jun 16:44:12 16:48:30 45° 100° (E) 16:52:46 437.445
SO-50 30 Jun 16:46:19 16:50:44 33° 309° (NW) 16:55:11 436.795
MOZHAYETS 4 30 Jun 16:50:08 16:54:40 50° 99° (E) 16:59:08
HORYU 2 30 Jun 17:05:53 17:10:15 61° 74° (ENE) 17:14:39 437.375
STARS 30 Jun 17:10:24 17:14:38 43° 99° (E) 17:18:50 437.465
NOAA 18 30 Jun 17:13:45 17:16:38 15° 60° (ENE) 17:19:32 137.9125
Cosmos 2504 30 Jun 17:14:58 17:16:12 10° 304° (WNW) 17:17:27 435.465 / 435.565
RS-15 30 Jun 17:18:59 17:26:51 19° 6° (N) 17:34:51 29.354- 29.394
GONETS M04 30 Jun 17:32:05 17:38:28 23° 81° (E) 17:44:49
CUTE-I 30 Jun 17:34:05 17:37:48 20° 64° (ENE) 17:41:33 437.470
SRMSAT 30 Jun 17:49:28 17:51:04 11° 174° (S) 17:52:41 437.500
Cosmos 2499 30 Jun 17:52:16 17:58:00 21° 79° (E) 18:03:55 435.465 / 435.565
NOAA 15 30 Jun 17:53:36 17:58:31 40° 70° (ENE) 18:03:24 137.62
AIST 1 30 Jun 18:02:16 18:06:15 36° 282° (WNW) 18:10:13
BRITE-PL 30 Jun 18:19:02 18:24:01 65° 75° (ENE) 18:28:37 437.365/2234.400
KKS-1 30 Jun 18:21:57 18:24:40 16° 295° (WNW) 18:27:24 437.445
CUBESAT XI-V 30 Jun 18:23:42 18:28:16 58° 100° (E) 18:32:46 437.345
MOZHAYETS 4 30 Jun 18:28:38 18:31:23 16° 295° (WNW) 18:34:06
DANDE 30 Jun 18:34:14 18:36:51 15° 63° (ENE) 18:39:08 436.750
Cubesat XI-IV 30 Jun 18:38:23 18:43:43 75° 74° (ENE) 18:49:05 437.490
GOMX 1 30 Jun 18:41:39 18:46:02 47° 74° (ENE) 18:50:12 467.674
LilacSat-2 30 Jun 18:43:22 18:47:08 81° 78° (ENE) 18:50:58 437.200
HORYU 2 30 Jun 18:45:59 18:47:11 11° 269° (W) 18:48:23 437.375
STARS 30 Jun 18:47:52 18:50:37 16° 295° (WNW) 18:53:22 437.465
NOAA 18 30 Jun 18:51:09 18:56:36 75° 256° (WSW) 19:02:07 137.9125
CUTE-I 30 Jun 19:12:12 19:17:25 53° 260° (W) 19:22:39 437.470
HO-68 30 Jun 19:20:25 19:26:27 31° 62° (ENE) 19:32:31 435.675
GONETS M04 30 Jun 19:25:46 19:34:25 68° 280° (W) 19:43:06
DOVE 4 30 Jun 19:30:23 19:34:41 72° 76° (ENE) 19:38:51 437.250
CUSAT 1 30 Jun 19:32:12 19:34:57 25° 270° (W) 19:37:19 437.405
RS-15 30 Jun 19:33:24 19:44:33 37° 40° (NE) 19:55:39 29.354- 29.394
NOAA 15 30 Jun 19:34:12 19:38:22 24° 265° (W) 19:42:34 137.62
SRMSAT 30 Jun 19:37:27 19:39:19 11° 185° (S) 19:41:12 437.500
Cosmos 2499 30 Jun 19:41:41 19:50:00 78° 278° (W) 19:58:52 435.465 / 435.565
BRITE-PL 30 Jun 20:00:52 20:02:45 12° 268° (W) 20:04:36 437.365/2234.400
CUBESAT XI-V 30 Jun 20:02:50 20:05:08 14° 296° (WNW) 20:07:24 437.345
CINEMA 3 30 Jun 20:09:11 20:13:12 51° 74° (ENE) 20:17:15 145.822/145.860
DANDE 30 Jun 20:16:08 20:19:59 29° 272° (W) 20:23:02 436.750
COMPASS 1 30 Jun 20:16:30 20:20:03 27° 70° (ENE) 20:23:39 437.405
GOMX 1 30 Jun 20:21:55 20:24:18 14° 267° (W) 20:26:39 467.674
Cubesat XI-IV 30 Jun 20:22:12 20:24:19 12° 270° (W) 20:26:26 437.490
CANX-2 30 Jun 20:23:07 20:27:23 78° 78° (ENE) 20:31:43 2200.000
UWE-3 30 Jun 20:34:06 20:37:08 20° 67° (ENE) 20:40:13 435.000/436.395/437.385
AO-85 30 Jun 20:36:54 20:41:31 29° 112° (ESE) 20:46:04 145.980
AUBIESAT-1 30 Jun 20:41:47 20:44:21 21° 65° (ENE) 20:46:58 437.475
